Flag for Austria Weather past 2 weeks in Murau, Styria, Austria

Now
55 °F

Sprinkles. Broken clouds.


Feels Like: 54 °F
Forecast: 37 / 53 °F
Wind: 6 mph from East

Location: Zeltweg

Current Time: Sep 5, 2015 at 10:00:35 AM

Latest Report: Sep 5, 2015 at 8:50 AM


Visibility: 5 mi

Pressure: 29.95 "Hg (27.07 "Hg at 848m altitude)

Humidity: 94%

Dew point: 54 °F

Location of MurauLocation

Historic Weather in Murau — Graph

°F

Murau temperature yesterday

Maximum temperature yesterday: 66 °F (at 2:50 PM)
Minimum temperature yesterday: 54 °F (at 5:50 AM)
Average temperature yesterday: 60 °F

Past Weeks' High & Low Weather Summary

 TemperatureHumidityPressure
High90 °F (Aug 29, 4:50 PM)100% (Aug 22, 10:20 AM)30.33 "Hg (Aug 22, 10:20 AM)
Low48 °F (Aug 23, 6:50 AM)21% (Aug 30, 3:20 PM)29.83 "Hg (Sep 1, 6:20 PM)
Average67 °F66%30.08 "Hg
* Reported Aug 21 8:20 AM — Sep 5 8:50 AM, Murau, Weather by CustomWeather, © 2015

Note: Actual official high and low records may vary slightly from our data, if they occured in-between our weather recording intervals... More about our weather records

Advertising

Murau weather history for previous 24 hours

 ConditionsComfort  
Time TempWeatherWind HumidityBarometerVisibility
8:50 AM
Sat, Sep 5
55 °FSprinkles. Broken clouds.6 mph94%29.95 "Hg5 mi
7:50 AM55 °FSprinkles. Broken clouds.5 mph94%29.92 "Hg5 mi
6:50 AM55 °FPartly cloudy.1 mph94%29.92 "Hg6 mi
5:50 AM55 °FLow clouds.1 mph94%29.95 "Hg9 mi
4:50 AM55 °FLow clouds.3 mph94%29.92 "Hg12 mi
10:50 PM
Fri, Sep 4
55 °FPassing clouds.1 mph94%30.01 "Hg12 mi
9:50 PM57 °FPassing clouds.2 mph88%30.01 "Hg12 mi
8:50 PM57 °FSprinkles. Passing clouds.3 mph94%30.01 "Hg6 mi
7:50 PM61 °FSprinkles. Partly sunny.5 mph77%30.01 "Hg6 mi
6:50 PM63 °FPartly sunny.5 mph64%29.98 "Hg16 mi
5:50 PM63 °FPartly sunny.9 mph59%30.01 "Hg19 mi
4:50 PM64 °FPartly sunny.8 mph64%29.98 "Hg19 mi
3:50 PM66 °FPartly sunny.6 mph52%30.01 "Hg19 mi
3:20 PM66 °FPartly sunny.7 mph52%30.01 "Hg22 mi
2:50 PM66 °FPartly sunny.5 mph49%30.01 "Hg22 mi
2:20 PM64 °FPartly sunny.2 mph52%30.01 "Hg25 mi
1:50 PM64 °FPartly sunny.3 mph56%30.01 "Hg25 mi
1:20 PM64 °FPartly sunny.3 mph56%30.01 "Hg25 mi
12:50 PM64 °FPartly sunny.1 mph60%30.01 "Hg25 mi
12:20 PM64 °FPartly sunny.2 mph56%30.04 "Hg25 mi
11:50 AM63 °FPartly sunny.3 mph64%30.04 "Hg25 mi
11:20 AM61 °FPartly sunny.1 mph63%30.04 "Hg25 mi
10:50 AM61 °FPartly sunny.3 mph59%30.04 "Hg25 mi
10:20 AM59 °FPartly sunny.3 mph68%30.04 "Hg25 mi
Weather by CustomWeather, © 2015

See weather overviewHow to use our weather pages